| time (UTC) | temp F | wind direction | speed knots | gust knots | rain 1hr in | rain 24hr in | rain mn in | humidity % | barometer mb |
| 20260505065428 | 52 | 0 | 0.0 | 0.0 | 0.00 | 0.00 | 0.00 | 90 | 1012.0 |
| 20260505064928 | 53 | 174 | 0.9 | 1.7 | 0.00 | 0.00 | 0.00 | 90 | 1012.0 |
| 20260505064427 | 53 | 308 | 0.9 | 0.9 | 0.00 | 0.00 | 0.00 | 89 | 1012.0 |
| 20260505063926 | 53 | 20 | 0.0 | 0.9 | 0.00 | 0.00 | 0.00 | 89 | 1012.0 |
| 20260505063426 | 53 | 244 | 0.9 | 0.9 | 0.00 | 0.00 | 0.00 | 89 | 1011.0 |
| 20260505062928 | 53 | 229 | 0.9 | 1.7 | 0.00 | 0.00 | 0.00 | 89 | 1011.0 |
| 20260505062427 | 53 | 212 | 0.9 | 1.7 | 0.00 | 0.00 | 0.00 | 88 | 1011.0 |
| 20260505061929 | 53 | 183 | 0.9 | 2.6 | 0.00 | 0.00 | 0.00 | 88 | 1011.0 |
| 20260505061426 | 54 | 273 | 0.0 | 0.9 | 0.00 | 0.00 | 0.00 | 87 | 1011.0 |
| 20260505060929 | 54 | 194 | 0.9 | 3.5 | 0.00 | 0.00 | 0.00 | 87 | 1011.0 |
| 20260505060427 | 54 | 185 | 1.7 | 3.5 | 0.00 | 0.00 | 0.00 | 87 | 1011.0 |
| 20260505055928 | 54 | 190 | 0.0 | 0.9 | 0.00 | 0.00 | 0.00 | 87 | 1011.0 |
| 20260505055426 | 54 | 201 | 2.6 | 3.5 | 0.00 | 0.00 | 0.00 | 87 | 1011.0 |
| 20260505054926 | 54 | 188 | 1.7 | 5.2 | 0.00 | 0.00 | 0.00 | 86 | 1011.0 |
| 20260505054426 | 54 | 193 | 1.7 | 2.6 | 0.00 | 0.00 | 0.00 | 86 | 1011.0 |
| 20260505053927 | 54 | 217 | 1.7 | 1.7 | 0.00 | 0.00 | 0.00 | 85 | 1011.0 |
| 20260505053426 | 55 | 202 | 1.7 | 4.3 | 0.00 | 0.00 | 0.00 | 86 | 1011.0 |
| 20260505052926 | 55 | 214 | 0.9 | 1.7 | 0.00 | 0.00 | 0.00 | 85 | 1011.0 |
| 20260505052427 | 55 | 188 | 1.7 | 2.6 | 0.00 | 0.00 | 0.00 | 85 | 1011.0 |
| 20260505051928 | 55 | 184 | 1.7 | 3.5 | 0.00 | 0.00 | 0.00 | 84 | 1011.0 |
| 20260505051427 | 55 | 206 | 2.6 | 3.5 | 0.00 | 0.00 | 0.00 | 84 | 1011.0 |
| 20260505050927 | 55 | 208 | 0.9 | 1.7 | 0.00 | 0.00 | 0.00 | 84 | 1011.0 |
| 20260505050426 | 55 | 183 | 1.7 | 3.5 | 0.00 | 0.00 | 0.00 | 83 | 1011.0 |
| 20260505041426 | 58 | 200 | 1.7 | 3.5 | 0.00 | 0.00 | 0.00 | 78 | 1010.0 |
| 20260505040926 | 58 | 275 | 0.0 | 1.7 | 0.00 | 0.00 | 0.00 | 77 | 1010.0 |
| 20260505040426 | 59 | 211 | 2.6 | 4.3 | 0.00 | 0.00 | 0.00 | 77 | 1010.0 |
| 20260505035926 | 59 | 190 | 3.5 | 7.0 | 0.00 | 0.00 | 0.00 | 76 | 1010.0 |
| 20260505035428 | 60 | 210 | 3.5 | 5.2 | 0.00 | 0.00 | 0.00 | 76 | 1010.0 |
| 20260505034926 | 60 | 217 | 1.7 | 3.5 | 0.00 | 0.00 | 0.00 | 75 | 1010.0 |
| 20260505034426 | 60 | 187 | 1.7 | 3.5 | 0.00 | 0.00 | 0.00 | 74 | 1010.0 |
| 20260505033926 | 61 | 207 | 1.7 | 2.6 | 0.00 | 0.00 | 0.00 | 73 | 1010.0 |
| 20260505033426 | 61 | 216 | 1.7 | 3.5 | 0.00 | 0.00 | 0.00 | 72 | 1010.0 |
| 20260505032927 | 62 | 215 | 1.7 | 2.6 | 0.00 | 0.00 | 0.00 | 72 | 1010.0 |
| 20260505032427 | 62 | 193 | 2.6 | 4.3 | 0.00 | 0.00 | 0.00 | 70 | 1010.0 |
| 20260505031928 | 62 | 205 | 0.9 | 2.6 | 0.00 | 0.00 | 0.00 | 70 | 1010.0 |
| 20260505031427 | 63 | 210 | 2.6 | 5.2 | 0.00 | 0.00 | 0.00 | 69 | 1010.0 |
| 20260505030927 | 63 | 215 | 1.7 | 2.6 | 0.00 | 0.00 | 0.00 | 69 | 1010.0 |
| 20260505030426 | 64 | 185 | 0.9 | 2.6 | 0.00 | 0.00 | 0.00 | 68 | 1010.0 |
| 20260505025928 | 64 | 196 | 4.3 | 7.0 | 0.00 | 0.00 | 0.00 | 67 | 1010.0 |
| 20260505025426 | 65 | 174 | 2.6 | 3.5 | 0.00 | 0.00 | 0.00 | 67 | 1009.0 |
| 20260505024926 | 65 | 196 | 1.7 | 3.5 | 0.00 | 0.00 | 0.00 | 66 | 1009.0 |
| 20260505024427 | 66 | 188 | 3.5 | 5.2 | 0.00 | 0.00 | 0.00 | 65 | 1009.0 |
| 20260505023927 | 66 | 200 | 2.6 | 3.5 | 0.00 | 0.00 | 0.00 | 63 | 1009.0 |
| 20260505023426 | 67 | 214 | 0.9 | 2.6 | 0.00 | 0.00 | 0.00 | 63 | 1009.0 |
| 20260505022930 | 67 | 221 | 1.7 | 2.6 | 0.00 | 0.00 | 0.00 | 62 | 1009.0 |
| 20260505022426 | 68 | 213 | 2.6 | 3.5 | 0.00 | 0.00 | 0.00 | 61 | 1009.0 |
| 20260505021928 | 68 | 208 | 1.7 | 2.6 | 0.00 | 0.00 | 0.00 | 60 | 1009.0 |
| 20260505021428 | 69 | 210 | 1.7 | 1.7 | 0.00 | 0.00 | 0.00 | 60 | 1009.0 |
| 20260505020927 | 69 | 189 | 0.9 | 1.7 | 0.00 | 0.00 | 0.00 | 59 | 1009.0 |
| 20260505020426 | 70 | 207 | 1.7 | 3.5 | 0.00 | 0.00 | 0.00 | 58 | 1009.0 |
| 20260505015926 | 70 | 202 | 2.6 | 4.3 | 0.00 | 0.00 | 0.00 | 57 | 1009.0 |
| 20260505015426 | 71 | 198 | 3.5 | 6.1 | 0.00 | 0.00 | 0.00 | 56 | 1009.0 |
| 20260505014926 | 71 | 191 | 2.6 | 6.1 | 0.00 | 0.00 | 0.00 | 55 | 1009.0 |
| 20260505014426 | 71 | 187 | 2.6 | 3.5 | 0.00 | 0.00 | 0.00 | 54 | 1009.0 |
| 20260505013926 | 72 | 199 | 2.6 | 4.3 | 0.00 | 0.00 | 0.00 | 53 | 1009.0 |
| 20260505013426 | 72 | 200 | 1.7 | 3.5 | 0.00 | 0.00 | 0.00 | 54 | 1009.0 |
| 20260505012927 | 73 | 254 | 2.6 | 5.2 | 0.00 | 0.00 | 0.00 | 53 | 1009.0 |
| 20260505012426 | 73 | 194 | 2.6 | 3.5 | 0.00 | 0.00 | 0.00 | 52 | 1009.0 |
| 20260505011927 | 73 | 194 | 3.5 | 7.0 | 0.00 | 0.00 | 0.00 | 50 | 1009.0 |
| 20260505011428 | 74 | 209 | 2.6 | 4.3 | 0.00 | 0.00 | 0.00 | 50 | 1009.0 |
| 20260505010927 | 74 | 185 | 3.5 | 6.1 | 0.00 | 0.00 | 0.00 | 49 | 1009.0 |
| 20260505010428 | 74 | 192 | 3.5 | 6.1 | 0.00 | 0.00 | 0.00 | 48 | 1009.0 |
| 20260505005926 | 75 | 189 | 3.5 | 4.3 | 0.00 | 0.00 | 0.00 | 48 | 1009.0 |
| 20260505005426 | 75 | 204 | 1.7 | 3.5 | 0.00 | 0.00 | 0.00 | 49 | 1009.0 |
| 20260505004927 | 76 | 193 | 1.7 | 3.5 | 0.00 | 0.00 | 0.00 | 47 | 1009.0 |
| 20260505004426 | 76 | 192 | 0.9 | 2.6 | 0.00 | 0.00 | 0.00 | 47 | 1009.0 |
| 20260505003927 | 77 | 182 | 2.6 | 4.3 | 0.00 | 0.00 | 0.00 | 45 | 1009.0 |
| 20260505003426 | 77 | 206 | 1.7 | 2.6 | 0.00 | 0.00 | 0.00 | 45 | 1009.0 |
| 20260505002927 | 78 | 199 | 1.7 | 3.5 | 0.00 | 0.00 | 0.00 | 45 | 1009.0 |
| 20260505002426 | 78 | 206 | 1.7 | 2.6 | 0.00 | 0.00 | 0.00 | 43 | 1010.0 |
| 20260505001926 | 78 | 230 | 1.7 | 3.5 | 0.00 | 0.00 | 0.00 | 44 | 1010.0 |
| 20260505001428 | 78 | 319 | 0.9 | 1.7 | 0.00 | 0.00 | 0.00 | 44 | 1010.0 |
| 20260505000927 | 78 | 189 | 4.3 | 7.8 | 0.00 | 0.00 | 0.00 | 44 | 1010.0 |
| 20260505000428 | 78 | 190 | 4.3 | 5.2 | 0.00 | 0.00 | 0.00 | 43 | 1010.0 |
| 20260504235926 | 78 | 168 | 3.5 | 5.2 | 0.00 | 0.00 | 0.00 | 43 | 1010.0 |
| 20260504235427 | 78 | 176 | 1.7 | 3.5 | 0.00 | 0.00 | 0.00 | 43 | 1010.0 |
| 20260504234927 | 78 | 183 | 3.5 | 7.0 | 0.00 | 0.00 | 0.00 | 43 | 1009.0 |
| 20260504234426 | 78 | 177 | 3.5 | 5.2 | 0.00 | 0.00 | 0.00 | 44 | 1009.0 |
| 20260504233926 | 78 | 239 | 1.7 | 1.7 | 0.00 | 0.00 | 0.00 | 44 | 1010.0 |
| 20260504233426 | 78 | 185 | 4.3 | 6.1 | 0.00 | 0.00 | 0.00 | 45 | 1010.0 |
| 20260504232926 | 78 | 197 | 1.7 | 2.6 | 0.00 | 0.00 | 0.00 | 45 | 1010.0 |
| 20260504232428 | 78 | 200 | 3.5 | 7.8 | 0.00 | 0.00 | 0.00 | 44 | 1010.0 |
| 20260504231926 | 78 | 200 | 2.6 | 4.3 | 0.00 | 0.00 | 0.00 | 46 | 1010.0 |
| 20260504231428 | 78 | 175 | 5.2 | 7.0 | 0.00 | 0.00 | 0.00 | 44 | 1010.0 |
| 20260504230927 | 78 | 196 | 3.5 | 6.1 | 0.00 | 0.00 | 0.00 | 44 | 1010.0 |
| 20260504230426 | 78 | 162 | 4.3 | 6.1 | 0.00 | 0.00 | 0.00 | 46 | 1010.0 |
| 20260504225928 | 78 | 200 | 2.6 | 5.2 | 0.00 | 0.00 | 0.00 | 49 | 1010.0 |
| 20260504225427 | 78 | 231 | 1.7 | 3.5 | 0.00 | 0.00 | 0.00 | 45 | 1010.0 |
| 20260504224926 | 78 | 220 | 1.7 | 2.6 | 0.00 | 0.00 | 0.00 | 47 | 1010.0 |
| 20260504224426 | 78 | 247 | 1.7 | 2.6 | 0.00 | 0.00 | 0.00 | 44 | 1010.0 |
| 20260504223929 | 78 | 190 | 2.6 | 4.3 | 0.00 | 0.00 | 0.00 | 47 | 1010.0 |
| 20260504223426 | 78 | 179 | 3.5 | 7.8 | 0.00 | 0.00 | 0.00 | 47 | 1010.0 |
| 20260504222927 | 77 | 165 | 3.5 | 5.2 | 0.00 | 0.00 | 0.00 | 47 | 1010.0 |
| 20260504222428 | 77 | 178 | 5.2 | 7.0 | 0.00 | 0.00 | 0.00 | 45 | 1010.0 |
| 20260504221927 | 77 | 178 | 3.5 | 7.0 | 0.00 | 0.00 | 0.00 | 46 | 1010.0 |
| 20260504221427 | 78 | 169 | 6.1 | 8.7 | 0.00 | 0.00 | 0.00 | 45 | 1010.0 |
| 20260504220926 | 77 | 193 | 2.6 | 4.3 | 0.00 | 0.00 | 0.00 | 45 | 1010.0 |
| 20260504220426 | 77 | 304 | 1.7 | 4.3 | 0.00 | 0.00 | 0.00 | 47 | 1010.0 |
| 20260504215927 | 77 | 197 | 2.6 | 5.2 | 0.00 | 0.00 | 0.00 | 45 | 1011.0 |
| 20260504215426 | 77 | 310 | 1.7 | 1.7 | 0.00 | 0.00 | 0.00 | 49 | 1011.0 |
| 20260504214930 | 77 | 176 | 3.5 | 7.0 | 0.00 | 0.00 | 0.00 | 48 | 1011.0 |
| 20260504214427 | 77 | 173 | 1.7 | 3.5 | 0.00 | 0.00 | 0.00 | 49 | 1011.0 |
| 20260504213927 | 77 | 221 | 1.7 | 2.6 | 0.00 | 0.00 | 0.00 | 45 | 1011.0 |
| 20260504213426 | 77 | 172 | 5.2 | 7.8 | 0.00 | 0.00 | 0.00 | 46 | 1011.0 |
| 20260504212927 | 77 | 191 | 4.3 | 6.1 | 0.00 | 0.00 | 0.00 | 48 | 1011.0 |
| 20260504212429 | 76 | 156 | 4.3 | 7.0 | 0.00 | 0.00 | 0.00 | 48 | 1011.0 |
| 20260504211929 | 76 | 176 | 6.1 | 7.8 | 0.00 | 0.00 | 0.00 | 48 | 1011.0 |
| 20260504211428 | 76 | 185 | 6.1 | 7.8 | 0.00 | 0.00 | 0.00 | 48 | 1011.0 |
| 20260504210927 | 76 | 185 | 1.7 | 4.3 | 0.00 | 0.00 | 0.00 | 49 | 1011.0 |
| 20260504210428 | 76 | 167 | 3.5 | 4.3 | 0.00 | 0.00 | 0.00 | 49 | 1011.0 |
| 20260504205927 | 75 | 170 | 3.5 | 7.0 | 0.00 | 0.00 | 0.00 | 49 | 1011.0 |
| 20260504205427 | 75 | 151 | 3.5 | 5.2 | 0.00 | 0.00 | 0.00 | 50 | 1011.0 |
| 20260504204929 | 75 | 170 | 6.1 | 7.8 | 0.00 | 0.00 | 0.00 | 49 | 1011.0 |
| 20260504204427 | 75 | 180 | 4.3 | 6.1 | 0.00 | 0.00 | 0.00 | 51 | 1011.0 |
| 20260504203927 | 75 | 166 | 3.5 | 5.2 | 0.00 | 0.00 | 0.00 | 51 | 1011.0 |
| 20260504203426 | 75 | 179 | 4.3 | 6.1 | 0.00 | 0.00 | 0.00 | 51 | 1011.0 |
| 20260504202927 | 75 | 189 | 3.5 | 4.3 | 0.00 | 0.00 | 0.00 | 49 | 1011.0 |
| 20260504202426 | 75 | 234 | 1.7 | 2.6 | 0.00 | 0.00 | 0.00 | 49 | 1011.0 |
| 20260504201930 | 75 | 191 | 3.5 | 5.2 | 0.00 | 0.00 | 0.00 | 51 | 1011.0 |
| 20260504201428 | 74 | 179 | 3.5 | 6.1 | 0.00 | 0.00 | 0.00 | 49 | 1011.0 |
| 20260504200927 | 74 | 207 | 1.7 | 2.6 | 0.00 | 0.00 | 0.00 | 50 | 1011.0 |
| 20260504200430 | 74 | 217 | 3.5 | 5.2 | 0.00 | 0.00 | 0.00 | 51 | 1011.0 |
| 20260504195927 | 74 | 182 | 5.2 | 7.0 | 0.00 | 0.00 | 0.00 | 50 | 1011.0 |
| 20260504195427 | 74 | 215 | 3.5 | 5.2 | 0.00 | 0.00 | 0.00 | 53 | 1011.0 |
| 20260504194930 | 74 | 234 | 1.7 | 2.6 | 0.00 | 0.00 | 0.00 | 52 | 1011.0 |
| 20260504194430 | 74 | 178 | 4.3 | 6.1 | 0.00 | 0.00 | 0.00 | 53 | 1011.0 |
| 20260504193927 | 73 | 184 | 2.6 | 5.2 | 0.00 | 0.00 | 0.00 | 53 | 1011.0 |
| 20260504193430 | 73 | 167 | 2.6 | 5.2 | 0.00 | 0.00 | 0.00 | 53 | 1011.0 |
| 20260504192929 | 73 | 167 | 6.1 | 7.8 | 0.00 | 0.00 | 0.00 | 55 | 1011.0 |
| 20260504192428 | 72 | 211 | 3.5 | 4.3 | 0.00 | 0.00 | 0.00 | 56 | 1011.0 |
| 20260504191928 | 72 | 173 | 4.3 | 6.1 | 0.00 | 0.00 | 0.00 | 56 | 1011.0 |
| 20260504191427 | 72 | 168 | 5.2 | 7.8 | 0.00 | 0.00 | 0.00 | 54 | 1011.0 |
| 20260504190926 | 72 | 191 | 6.1 | 7.8 | 0.00 | 0.00 | 0.00 | 53 | 1011.0 |
| 20260504190427 | 72 | 192 | 3.5 | 5.2 | 0.00 | 0.00 | 0.00 | 54 | 1011.0 |
| 20260504185929 | 72 | 201 | 3.5 | 7.0 | 0.00 | 0.00 | 0.00 | 56 | 1011.0 |
| 20260504185430 | 73 | 198 | 4.3 | 7.0 | 0.00 | 0.00 | 0.00 | 56 | 1011.0 |
| 20260504184927 | 73 | 227 | 3.5 | 7.0 | 0.00 | 0.00 | 0.00 | 53 | 1011.0 |
| 20260504184429 | 72 | 174 | 2.6 | 4.3 | 0.00 | 0.00 | 0.00 | 58 | 1011.0 |
| 20260504183927 | 72 | 188 | 5.2 | 7.8 | 0.00 | 0.00 | 0.00 | 54 | 1011.0 |
| 20260504183432 | 72 | 290 | 1.7 | 3.5 | 0.00 | 0.00 | 0.00 | 54 | 1011.0 |
| 20260504182930 | 72 | 218 | 2.6 | 4.3 | 0.00 | 0.00 | 0.00 | 56 | 1011.0 |
| 20260504182429 | 72 | 175 | 5.2 | 7.8 | 0.00 | 0.00 | 0.00 | 55 | 1011.0 |
| 20260504181927 | 71 | 173 | 3.5 | 5.2 | 0.00 | 0.00 | 0.00 | 55 | 1011.0 |
| 20260504181430 | 71 | 178 | 5.2 | 7.8 | 0.00 | 0.00 | 0.00 | 55 | 1011.0 |
| 20260504180931 | 71 | 177 | 2.6 | 6.1 | 0.00 | 0.00 | 0.00 | 59 | 1012.0 |
| 20260504180428 | 71 | 162 | 4.3 | 7.0 | 0.00 | 0.00 | 0.00 | 55 | 1012.0 |
| 20260504175929 | 71 | 199 | 5.2 | 7.8 | 0.00 | 0.00 | 0.00 | 55 | 1011.0 |
| 20260504175430 | 71 | 153 | 5.2 | 7.8 | 0.00 | 0.00 | 0.00 | 56 | 1011.0 |
| 20260504174929 | 70 | 167 | 4.3 | 7.0 | 0.00 | 0.00 | 0.00 | 58 | 1012.0 |
| 20260504174431 | 70 | 153 | 5.2 | 7.8 | 0.00 | 0.00 | 0.00 | 57 | 1011.0 |
| 20260504173930 | 70 | 185 | 3.5 | 6.1 | 0.00 | 0.00 | 0.00 | 57 | 1011.0 |
| 20260504173428 | 70 | 163 | 2.6 | 4.3 | 0.00 | 0.00 | 0.00 | 58 | 1011.0 |
| 20260504172927 | 70 | 178 | 5.2 | 7.8 | 0.00 | 0.00 | 0.00 | 57 | 1011.0 |
| 20260504172428 | 69 | 188 | 3.5 | 5.2 | 0.00 | 0.00 | 0.00 | 57 | 1011.0 |
| 20260504171929 | 69 | 160 | 4.3 | 7.0 | 0.00 | 0.00 | 0.00 | 58 | 1011.0 |
| 20260504171427 | 69 | 174 | 4.3 | 6.1 | 0.00 | 0.00 | 0.00 | 58 | 1011.0 |
| 20260504170932 | 69 | 185 | 4.3 | 6.1 | 0.00 | 0.00 | 0.00 | 58 | 1011.0 |
| 20260504170429 | 68 | 193 | 3.5 | 5.2 | 0.00 | 0.00 | 0.00 | 59 | 1011.0 |
| 20260504160432 | 66 | 165 | 3.5 | 5.2 | 0.00 | 0.00 | 0.00 | 62 | 1011.0 |
| 20260504150929 | 56 | 177 | 0.0 | 0.9 | 0.00 | 0.00 | 0.00 | 85 | 1011.0 |
| 20260504150431 | 55 | 162 | 0.0 | 0.9 | 0.00 | 0.00 | 0.00 | 90 | 1011.0 |
| 20260504140929 | 46 | 81 | 0.0 | 0.0 | 0.00 | 0.00 | 0.00 | 97 | 1010.0 |
| 20260504140427 | 46 | 87 | 0.0 | 0.9 | 0.00 | 0.00 | 0.00 | 97 | 1010.0 |
| 20260504130427 | 43 | 46 | 0.0 | 0.9 | 0.00 | 0.00 | 0.00 | 96 | 1009.0 |
| 20260504110430 | 44 | 65 | 0.0 | 0.9 | 0.00 | 0.00 | 0.00 | 95 | 1009.0 |
| 20260504100427 | 46 | 350 | 0.0 | 1.7 | 0.00 | 0.00 | 0.00 | 95 | 1009.0 |
| 20260504081926 | 48 | 33 | 0.0 | 0.9 | 0.00 | 0.00 | 0.00 | 92 | 1009.0 |
| 20260504081426 | 48 | 333 | 0.9 | 0.9 | 0.00 | 0.00 | 0.00 | 92 | 1009.0 |
| 20260504080927 | 48 | 70 | 0.0 | 0.9 | 0.00 | 0.00 | 0.00 | 92 | 1009.0 |
| 20260504080427 | 48 | 317 | 0.0 | 0.9 | 0.00 | 0.00 | 0.00 | 92 | 1009.0 |